Total_Precipitation_Accumulation
0.06 0.04 0.03 0.02 0.02 0.01 0.02 0.01 0.01 0.00 0.00 0.00 0.00 0.00 0.00 0.00 0.00 0.00 0.00 0.00 0.00 0.00 0.01 0.02 0.03 0.05 0.07 0.11 0.15 0.17 0.16 0.15 0.15 0.15 0.16 0.16 0.17 0.17 0.18 0.19 0.20 0.20 0.20
0.07 0.04 0.03 0.03 0.02 0.02 0.02 0.01 0.01 0.01 0.01 0.01 0.01 0.00 0.00 0.00 0.00 0.00 0.00 0.00 0.00 0.00 0.00 0.01 0.03 0.06 0.09 0.13 0.16 0.19 0.19 0.17 0.16 0.17 0.18 0.19 0.19 0.20 0.21 0.22 0.23 0.24 0.25
0.11 0.07 0.05 0.04 0.03 0.04 0.03 0.03 0.03 0.02 0.01 0.01 0.01 0.01 0.01 0.01 0.01 0.01 0.01 0.00 0.00 0.00 0.00 0.01 0.03 0.05 0.07 0.11 0.15 0.19 0.21 0.21 0.20 0.21 0.22 0.23 0.24 0.25 0.27 0.29 0.30 0.32 0.33
0.13 0.10 0.07 0.05 0.05 0.05 0.04 0.03 0.03 0.02 0.02 0.02 0.01 0.02 0.01 0.01 0.00 0.01 0.01 0.00 0.00 0.00 0.00 0.01 0.02 0.03 0.05 0.09 0.13 0.19 0.21 0.23 0.22 0.21 0.22 0.24 0.26 0.29 0.33 0.36 0.40 0.42 0.46
0.17 0.13 0.10 0.08 0.07 0.05 0.04 0.03 0.02 0.02 0.02 0.02 0.02 0.01 0.01 0.00 0.00 0.00 0.00 0.00 0.00 0.00 0.00 0.00 0.01 0.02 0.03 0.05 0.09 0.15 0.23 0.27 0.27 0.26 0.26 0.27 0.29 0.31 0.35 0.39 0.45 0.50 0.58
0.25 0.19 0.14 0.11 0.10 0.09 0.07 0.05 0.04 0.03 0.03 0.03 0.03 0.02 0.01 0.01 0.00 0.00 0.00 0.00 0.01 0.01 0.00 0.01 0.01 0.01 0.02 0.04 0.06 0.10 0.18 0.26 0.29 0.30 0.29 0.31 0.31 0.33 0.36 0.42 0.50 0.58 0.70
0.37 0.29 0.21 0.17 0.15 0.13 0.12 0.11 0.10 0.09 0.07 0.06 0.06 0.04 0.02 0.02 0.01 0.01 0.01 0.01 0.01 0.01 0.01 0.01 0.01 0.01 0.02 0.03 0.05 0.07 0.11 0.20 0.30 0.35 0.36 0.36 0.36 0.39 0.44 0.53 0.62 0.70 0.79
0.48 0.40 0.31 0.25 0.22 0.21 0.20 0.19 0.18 0.16 0.14 0.13 0.13 0.13 0.07 0.03 0.01 0.02 0.03 0.02 0.02 0.02 0.02 0.02 0.02 0.02 0.03 0.04 0.04 0.05 0.06 0.10 0.20 0.36 0.45 0.49 0.51 0.53 0.58 0.68 0.80 0.89 0.97
0.77 0.63 0.56 0.45 0.36 0.31 0.28 0.27 0.26 0.24 0.22 0.20 0.20 0.25 0.23 0.13 0.08 0.05 0.04 0.04 0.04 0.04 0.05 0.05 0.04 0.04 0.04 0.05 0.05 0.06 0.08 0.10 0.14 0.27 0.47 0.62 0.70 0.77 0.87 0.97 1.07 1.17 1.23
1.06 0.96 0.83 0.70 0.55 0.46 0.39 0.41 0.39 0.37 0.37 0.34 0.32 0.29 0.31 0.30 0.30 0.20 0.09 0.07 0.07 0.07 0.08 0.08 0.07 0.07 0.07 0.08 0.10 0.13 0.16 0.18 0.22 0.30 0.47 0.66 0.84 1.04 1.23 1.37 1.46 1.51 1.49
1.15 1.07 0.97 0.87 0.73 0.64 0.58 0.57 0.55 0.54 0.53 0.50 0.48 0.44 0.42 0.39 0.41 0.44 0.29 0.15 0.14 0.13 0.14 0.14 0.14 0.14 0.15 0.16 0.17 0.21 0.26 0.30 0.34 0.39 0.54 0.75 1.01 1.28 1.52 1.68 1.74 1.71 1.65
1.19 1.10 1.03 0.96 0.89 0.82 0.75 0.72 0.73 0.69 0.66 0.63 0.61 0.59 0.61 0.59 0.53 0.60 0.58 0.39 0.32 0.27 0.26 0.26 0.26 0.25 0.25 0.26 0.27 0.30 0.31 0.33 0.38 0.46 0.65 0.89 1.07 1.23 1.37 1.56 1.69 1.75 1.76
1.18 1.10 1.10 1.05 1.00 0.93 0.89 0.89 0.83 0.76 0.75 0.72 0.71 0.71 0.72 0.71 0.70 0.75 0.80 0.67 0.55 0.42 0.36 0.34 0.35 0.36 0.37 0.38 0.38 0.44 0.42 0.44 0.47 0.51 0.62 0.85 0.97 0.99 0.99 1.09 1.32 1.51 1.63
1.21 1.19 1.18 1.12 1.06 0.99 0.93 0.88 0.84 0.78 0.78 0.78 0.78 0.79 0.77 0.73 0.78 0.82 0.89 0.95 0.86 0.64 0.49 0.43 0.42 0.46 0.49 0.50 0.52 0.55 0.48 0.51 0.50 0.51 0.56 0.64 0.68 0.67 0.67 0.73 0.88 1.05 1.21
1.11 1.06 1.03 1.01 0.98 0.93 0.91 0.89 0.82 0.76 0.76 0.75 0.75 0.78 0.78 0.74 0.76 0.82 0.90 1.03 1.15 1.03 0.74 0.58 0.56 0.57 0.60 0.61 0.62 0.59 0.51 0.55 0.54 0.52 0.49 0.47 0.46 0.47 0.49 0.54 0.63 0.74 0.86
0.90 0.91 0.90 0.88 0.86 0.84 0.82 0.82 0.78 0.76 0.75 0.70 0.68 0.69 0.68 0.68 0.72 0.79 0.87 0.96 1.09 1.18 1.00 0.68 0.58 0.55 0.56 0.54 0.55 0.49 0.42 0.47 0.44 0.40 0.39 0.39 0.40 0.41 0.42 0.44 0.50 0.57 0.64
0.65 0.68 0.68 0.68 0.68 0.70 0.70 0.69 0.68 0.68 0.68 0.66 0.66 0.68 0.70 0.70 0.73 0.74 0.78 0.84 0.92 1.02 1.01 0.73 0.60 0.56 0.53 0.47 0.44 0.40 0.35 0.33 0.30 0.33 0.34 0.35 0.36 0.39 0.41 0.43 0.45 0.50 0.55
0.53 0.52 0.52 0.51 0.49 0.46 0.47 0.48 0.49 0.52 0.56 0.58 0.60 0.63 0.66 0.68 0.70 0.70 0.71 0.71 0.72 0.75 0.83 0.73 0.54 0.49 0.45 0.44 0.44 0.41 0.36 0.32 0.27 0.29 0.31 0.33 0.35 0.37 0.38 0.40 0.44 0.49 0.53
0.46 0.42 0.41 0.41 0.40 0.38 0.34 0.34 0.36 0.39 0.43 0.46 0.49 0.52 0.56 0.59 0.59 0.56 0.55 0.55 0.56 0.60 0.67 0.69 0.55 0.47 0.43 0.39 0.40 0.39 0.35 0.31 0.27 0.29 0.33 0.34 0.35 0.36 0.38 0.42 0.46 0.50 0.52
0.44 0.38 0.34 0.35 0.36 0.37 0.37 0.35 0.37 0.39 0.39 0.39 0.41 0.44 0.44 0.44 0.43 0.43 0.45 0.46 0.52 0.58 0.60 0.64 0.60 0.49 0.45 0.40 0.40 0.35 0.32 0.30 0.29 0.27 0.33 0.36 0.38 0.41 0.43 0.44 0.47 0.50 0.52
0.40 0.41 0.36 0.35 0.36 0.37 0.38 0.40 0.40 0.41 0.42 0.42 0.40 0.37 0.36 0.37 0.36 0.37 0.40 0.44 0.51 0.59 0.67 0.72 0.68 0.60 0.51 0.44 0.38 0.37 0.42 0.42 0.39 0.33 0.33 0.34 0.38 0.42 0.45 0.49 0.51 0.51 0.52
0.34 0.39 0.40 0.41 0.42 0.42 0.50 0.48 0.43 0.42 0.43 0.41 0.39 0.36 0.35 0.37 0.35 0.37 0.40 0.48 0.59 0.70 0.81 0.84 0.80 0.69 0.53 0.46 0.46 0.52 0.59 0.67 0.60 0.37 0.38 0.40 0.42 0.48 0.48 0.50 0.58 0.60 0.60
0.43 0.43 0.43 0.44 0.47 0.51 0.54 0.46 0.43 0.38 0.37 0.36 0.35 0.32 0.30 0.29 0.32 0.29 0.34 0.46 0.55 0.62 0.66 0.67 0.65 0.52 0.47 0.45 0.58 0.74 0.76 0.80 0.65 0.43 0.47 0.53 0.45 0.47 0.47 0.52 0.63 0.62 0.58
0.48 0.51 0.51 0.47 0.45 0.47 0.45 0.38 0.35 0.31 0.31 0.31 0.29 0.28 0.28 0.28 0.28 0.33 0.39 0.45 0.39 0.35 0.37 0.41 0.43 0.43 0.45 0.51 0.67 0.91 0.99 0.98 0.78 0.59 0.55 0.59 0.46 0.42 0.44 0.48 0.56 0.54 0.49
0.50 0.47 0.45 0.45 0.43 0.43 0.38 0.32 0.29 0.25 0.25 0.24 0.22 0.22 0.24 0.23 0.29 0.42 0.51 0.51 0.38 0.27 0.29 0.37 0.45 0.46 0.46 0.48 0.55 0.81 0.99 1.07 0.92 0.61 0.52 0.59 0.54 0.50 0.49 0.46 0.48 0.52 0.49
0.47 0.44 0.40 0.38 0.36 0.35 0.33 0.29 0.26 0.23 0.23 0.21 0.20 0.18 0.22 0.24 0.32 0.44 0.46 0.49 0.42 0.31 0.34 0.36 0.37 0.38 0.36 0.38 0.47 0.63 1.06 1.46 1.25 0.87 0.55 0.64 0.65 0.68 0.80 0.51 0.44 0.47 0.47